Showing default

YAOGAN-30 Y, 48424

Orbit data source: Space-Track

YAOGAN-30 Y, 48424 is a payload satellite owned by PLA SSF (CN) in LEO that was launched on Thu, 06 May 2021 UTC via a CHANG ZHENG 2C launch vehicle from the Xichang Space Center, China (XSC). Payload-class satellites include a variety of spacecraft equipped with specific instruments for various scientific and technological missions. These include communications satellites like Starlink; space stations such as the ISS; scientific satellites like the Hubble; Earth observation satellites from companies like Planet Labs, Umbra, and HawkEye 360; GPS; miniature CubeSats for education and research; and military/defense satellites.

Loading next visibility...
Identifier
48424, 2021-039B
Orbit
LEO
Country
Flag of CNCN / PRC
Related business
Manufacturer
SECM
Mission
Operational Defense Sigint
Bus & Motor
Unknown
Mass
~500 kg wet, ~500 kg dry
Launch date (UTC)
2021-05-06 (5 years ago)
Launch vehicle
CHANG ZHENG 2C
Launch site
Xichang Space Center, China (XSC)
Object type
Payload
Rocket body
Debris
Shape & HBR
Box + 2 Pan, 0.5 m
Radar Cross Section
0.446 m², Large (>1 m²)

Expand to show TLE details & history
Last TLE update: 22 hours ago

TLE from 22 hours ago
0 YAOGAN-30 Y
1 48424U 21039B   26172.52523922  .00002098  00000-0  15609-3 0  9998
2 48424  34.9969   4.6087 0004844 233.0389 126.9876 15.02717454280192
Epoch: 2026-06-21T12:36Z
TLE epoch observation values (Epoch: 2026-06-21T12:36:20.668Z)
Latitude
-0.00002°
Longitude
-94.2017°
Altitude
559.46 km
Speed
7.583 km/s
True Right ascension
00h 18m 26s
True Declination
0° 00' 00"
Sunlit
Object was in daylight at epoch
Visualization orbit readout
Latitude
Unknown
Longitude
Unknown
Altitude
Unknown
Speed
Unknown
Apparent Right ascension
Unknown
Apparent Declination
Unknown
Sunlit
N/A
Visualization observer readout
Local Sidereal Time
21:36:05
Azimuth
Unknown
Elevation
Unknown
Doppler factor
Unknown
Orbital elements
Apogee altitude
565.105 km
Perigee altitude
558.381 km
Semi-major axis
6,939.88 km
Eccentricity
0.00048
Inclination
34.9969°
RAAN
4.6087°
Arg. of periapsis
233.0389°
True anomaly
127.03192°
Mean anomaly
126.9876°
Eccentric anomaly
127.00976°
Mean motion
3.75418 °/min
Orbital period
95.89 mins
BSTAR
0.00015609
Loading maneuver chart data...
Computing Atmospheric mass density...
Loading historical data...
Loading historical data...
Loading historical data...
Loading historical data...
Loading historical data...
Loading historical data...
Loading historical data...
Other satellites on launch #39 in the year 2021 (2021-05-06 UTC)

Documentation

Showing up to 5 results
|